Showing default

EXPLORER 36 (GEOS 2), 3093

Orbit data source: Space-Track

EXPLORER 36 (GEOS 2), 3093 is a payload satellite owned by GSFC (US) in LEO that was launched on Thu, 11 Jan 1968 UTC via a THOR DELTA E1 launch vehicle from the Air Force Western Test Range (AFWTR). Payload-class satellites include a variety of spacecraft equipped with specific instruments for various scientific and technological missions. These include communications satellites like Starlink; space stations such as the ISS; scientific satellites like the Hubble; Earth observation satellites from companies like Planet Labs, Umbra, and HawkEye 360; GPS; miniature CubeSats for education and research; and military/defense satellites.

Loading next visibility...
Identifier
3093, 1968-002A
Orbit
LEO
Country
Flag of USUS
Related business
Manufacturer
APL
Mission
Spacecraft
Bus & Motor
ANNA, Unknown motor
Mass
212 kg wet, 212 kg dry
Launch date (UTC)
1968-01-11 (58 years ago)
Launch vehicle
THOR DELTA E1
Launch site
Air Force Western Test Range (AFWTR)
Object type
Payload
Rocket body
Debris
Shape & HBR
Unknown
Radar Cross Section
Large (>1 m²)

Expand to show TLE details & history
Last TLE update: 10 hours ago

TLE from 10 hours ago
0 EXPLORER 36 (GEOS 2)
1 03093U 68002A   25308.92874068 -.00000081  00000-0 -22745-4 0  9998
2 03093 105.8016 105.7904 0318074 109.7599  52.9618 12.83595139708582
Epoch: 2025-11-04T22:17Z
TLE epoch observation values (Epoch: 2025-11-04T22:17:23.194Z)
Latitude
13.72308°
Longitude
-89.02235°
Altitude
1,186.218 km
Speed
7.329 km/s
True Right ascension
19h 18m 55s
True Declination
13° 38' 55"
Sunlit
Object was in daylight at epoch
Visualization orbit readout
Latitude
Unknown
Longitude
Unknown
Altitude
Unknown
Speed
Unknown
Apparent Right ascension
Unknown
Apparent Declination
Unknown
Sunlit
N/A
Visualization observer readout
Local Sidereal Time
04:07:26
Azimuth
Unknown
Elevation
Unknown
Doppler factor
Unknown
Orbital elements
Apogee altitude
1,569.84 km
Perigee altitude
1,079.817 km
Semi-major axis
7,702.966 km
Eccentricity
0.03181
Inclination
105.8016°
RAAN
105.7904°
Arg. of periapsis
109.7599°
True anomaly
55.94122°
Mean anomaly
52.9618°
Eccentric anomaly
54.44444°
Mean motion
3.21038 °/min
Orbital period
112.14 mins
BSTAR
-0.000022745
Loading maneuver chart data...
Computing Atmospheric mass density...
Loading historical data...
Loading historical data...
Loading historical data...
Loading historical data...
Loading historical data...
Loading historical data...
Loading historical data...

Documentation

Showing up to 5 results
|